FW3241 Weather Reports


time (UTC)temp
C
wind
direction
speed
KPH
gust
KPH
rain 1hr
cm
rain 24hr
cm
rain mn
cm
humidity
%
barometer
mb
20260831123012 18 123 0.0 0.0 0.00 0.03 0.00 79 1022.5
20260831121511 18 123 0.0 0.0 0.00 0.03 0.00 78 1022.4
20260831120010 18 123 0.0 0.0 0.00 0.03 0.00 78 1022.2
20260831114518 18 123 0.0 0.0 0.00 0.03 0.00 78 1022.1
20260831113011 18 123 0.0 0.0 0.00 0.03 0.00 77 1022.1
20260831111507 18 123 0.0 0.0 0.00 0.03 0.00 77 1022.0
20260831110008 18 123 0.0 1.6 0.00 0.03 0.00 78 1022.0
20260831104512 18 123 0.0 1.6 0.00 0.03 0.00 78 1021.8
20260831103006 17 123 0.0 0.0 0.00 0.03 0.00 79 1021.8
20260831101506 18 123 0.0 1.6 0.00 0.03 0.00 78 1021.7
20260831100005 18 123 0.0 0.0 0.00 0.03 0.00 78 1021.6
20260831094506 18 123 0.0 0.0 0.00 0.03 0.00 77 1021.5
20260831093004 18 123 0.0 0.0 0.00 0.03 0.00 77 1021.5
20260831091502 18 123 0.0 0.0 0.00 0.03 0.00 78 1021.3
20260831084600 18 123 0.0 0.0 0.00 0.03 0.00 79 1021.5
20260831083105 18 123 0.0 0.0 0.00 0.03 0.00 79 1021.4
20260831081603 18 123 0.0 0.0 0.00 0.03 0.00 79 1021.5
20260831080057 18 123 0.0 0.0 0.00 0.03 0.00 80 1021.6
20260831074557 18 123 0.0 0.0 0.00 0.03 0.00 80 1021.8
20260831073059 18 123 0.0 0.0 0.00 0.03 0.00 80 1021.8
20260831071555 18 123 0.0 0.0 0.00 0.03 0.00 81 1021.7
20260831070057 18 123 0.0 0.0 0.00 0.03 0.00 81 1021.8
20260831064553 18 123 0.0 0.0 0.00 0.03 0.00 81 1021.8
20260831063053 18 123 0.0 0.0 0.00 0.03 0.00 81 1021.8
20260831061552 18 123 0.0 0.0 0.00 0.03 0.00 81 1021.7
20260831060050 18 123 0.0 0.0 0.00 0.03 0.00 81 1022.0
20260831054549 18 123 0.0 0.0 0.00 0.03 0.00 81 1022.0
20260831053048 18 123 0.0 0.0 0.00 0.03 0.00 80 1021.9
20260831051547 18 123 0.0 0.0 0.00 0.03 0.00 80 1022.1
20260831050101 18 123 0.0 0.0 0.00 0.03 0.00 79 1022.0
20260831044600 18 123 0.0 0.0 0.00 0.03 0.00 79 1022.0
20260831043043 18 123 0.0 0.0 0.00 0.03 0.00 79 1022.0
20260831041543 18 123 0.0 0.0 0.00 0.03 0.00 79 1022.2
20260831040041 19 123 0.0 0.0 0.00 0.03 0.00 79 1022.2
20260831034540 19 123 0.0 0.0 0.00 0.03 0.03 78 1022.2
20260831033040 19 123 0.0 1.6 0.00 0.03 0.03 78 1022.3
20260831031545 19 123 0.0 0.0 0.00 0.03 0.03 78 1022.4
20260831030039 19 123 0.0 0.0 0.00 0.03 0.03 78 1022.5
20260831024605 19 123 0.0 0.0 0.00 0.03 0.03 78 1022.5
20260831023038 19 123 0.0 0.0 0.00 0.03 0.03 79 1022.6
20260831021538 19 123 0.0 0.0 0.00 0.03 0.03 79 1022.4
20260831020100 19 123 0.0 0.0 0.00 0.03 0.03 79 1022.4
20260831014551 19 123 0.0 0.0 0.00 0.03 0.03 79 1022.2
20260831013036 19 123 0.0 0.0 0.00 0.03 0.03 80 1022.0
20260831011538 19 123 0.0 0.0 0.00 0.03 0.03 79 1021.9
20260831010044 19 123 0.0 0.0 0.00 0.03 0.03 79 1021.9
20260831004535 19 123 0.0 0.0 0.00 0.03 0.03 80 1021.9
20260831003035 20 123 0.0 0.0 0.00 0.03 0.03 79 1021.9
20260831001540 20 123 0.0 0.0 0.00 0.03 0.03 79 1021.8
20260831000033 20 123 0.0 0.0 0.00 0.03 0.03 78 1021.8
20260830234550 20 123 0.0 0.0 0.00 0.03 0.03 78 1021.7
20260830233034 20 123 0.0 0.0 0.00 0.03 0.03 78 1021.6
20260830231532 20 123 0.0 0.0 0.00 0.03 0.03 77 1021.5
20260830230037 21 123 0.0 0.0 0.00 0.03 0.03 77 1021.4
20260830224537 21 123 0.0 0.0 0.00 0.03 0.03 77 1021.4
20260830223030 21 123 0.0 0.0 0.00 0.03 0.03 78 1021.4
20260830221530 21 123 0.0 0.0 0.00 0.03 0.03 75 1021.5
20260830220032 21 123 0.0 3.2 0.00 0.03 0.03 76 1021.6
20260830214529 21 123 0.0 3.2 0.00 0.03 0.03 75 1021.4
20260830213028 21 123 1.6 4.8 0.00 0.03 0.03 75 1021.3
20260830211527 21 123 1.6 3.2 0.00 0.03 0.03 75 1021.2
20260830210026 21 123 0.0 3.2 0.00 0.03 0.03 75 1021.4
20260830204525 22 123 0.0 0.0 0.00 0.03 0.03 74 1021.5
20260830203024 22 123 0.0 0.0 0.00 0.03 0.03 73 1021.5
20260830201558 22 123 0.0 0.0 0.00 0.03 0.03 72 1021.5
20260830200022 22 123 0.0 3.2 0.00 0.03 0.03 75 1021.5
20260830194522 22 123 0.0 0.0 0.00 0.03 0.03 73 1021.7
20260830193019 22 123 0.0 0.0 0.00 0.03 0.03 71 1021.9
20260830191520 22 123 0.0 1.6 0.00 0.03 0.03 68 1022.0
20260830190019 22 123 0.0 4.8 0.00 0.03 0.03 71 1022.1
20260830184510 21 123 0.0 3.2 0.00 0.03 0.03 76 1022.4
20260830183010 21 123 0.0 0.0 0.00 0.03 0.03 75 1022.7
20260830181512 21 123 0.0 0.0 0.00 0.03 0.03 76 1022.9
20260830180008 21 123 0.0 0.0 0.00 0.03 0.03 74 1023.2
20260830174507 21 123 0.0 0.0 0.00 0.03 0.03 72 1023.3
20260830173010 21 123 0.0 0.0 0.00 0.03 0.03 70 1023.5
20260830171506 21 123 0.0 0.0 0.00 0.03 0.03 71 1023.4
20260830170004 21 123 0.0 1.6 0.00 0.03 0.03 72 1023.6
20260830164502 21 123 0.0 3.2 0.00 0.03 0.03 71 1023.8
20260830163102 21 123 0.0 3.2 0.00 0.03 0.03 71 1023.8
20260830161556 20 123 0.0 1.6 0.00 0.03 0.03 74 1023.9
20260830160052 19 123 0.0 0.0 0.00 0.03 0.03 75 1024.0
20260830154549 19 123 0.0 1.6 0.00 0.03 0.03 78 1023.9
20260830153048 18 123 0.0 0.0 0.00 0.03 0.03 79 1024.0
20260830151557 18 123 0.0 0.0 0.00 0.03 0.03 81 1024.1
20260830150047 18 123 0.0 0.0 0.00 0.03 0.03 81 1024.1
20260830144546 18 123 0.0 0.0 0.00 0.03 0.03 80 1024.2
20260830143045 18 123 0.0 1.6 0.00 0.03 0.03 80 1024.1
20260830141547 18 123 0.0 0.0 0.00 0.03 0.03 82 1024.1
20260830140044 17 123 0.0 0.0 0.00 0.03 0.03 81 1024.1
20260830134544 17 123 0.0 1.6 0.00 0.03 0.03 82 1024.1
20260830133046 17 123 0.0 0.0 0.03 0.03 0.03 82 1024.1
20260830131541 17 123 0.0 0.0 0.03 0.03 0.03 82 1024.2
20260830130044 17 123 0.0 0.0 0.03 0.03 0.03 82 1024.1
20260830124538 17 123 0.0 0.0 0.03 0.03 0.03 82 1024.1